[Show "Revision History"] [Show "General Page Infos"] [Show "Page hits and edits"]

Revision History

Showing page edit history entries from 1 to 143 out of 143 entries total.

# Date Size Editor Comment Action
143 2015-06-26 07:09:23 22716 to previous MuammarElkhatib   view
142 2013-08-26 05:21:44 22852 to previous ?NorbertWagner   view
141 2013-08-25 08:44:55 22845 to previous ?NorbertWagner   view
140 2013-05-02 15:58:32 22669 to previous GeoffSimmons Wireless: drop outdated information. view
139 2012-06-10 13:33:14 23665 to previous ?FlorianPaul   view
138 2012-03-18 16:41:17 24062 to previous ?MouradDeClerck use InstallingDebianOn/Apple/PageFragmentClickPad view
137 2011-12-04 02:11:49 26950 to previous MuammarElkhatib   view
136 2011-11-29 02:48:00 26613 to previous ?MikeDentifrice added macbookpro8,2 (late 2011) view
135 2011-08-19 16:15:42 26424 to previous ?FlorianPaul Additional information on the creation of the lid.sh.pre for hibernating view
134 2011-07-01 22:49:39 26043 to previous MuammarElkhatib   view
133 2011-07-01 22:47:40 26038 to previous MuammarElkhatib   view
132 2011-07-01 22:45:42 26033 to previous MuammarElkhatib   view
131 2011-07-01 22:39:32 25859 to previous MuammarElkhatib   view
130 2011-07-01 22:36:34 25813 to previous MuammarElkhatib   view
129 2011-07-01 22:35:23 25811 to previous MuammarElkhatib   view
128 2011-07-01 22:15:32 23552 to previous MuammarElkhatib   view
127 2011-06-18 14:58:39 23649 to previous MuammarElkhatib   view
126 2011-05-17 12:35:18 22415 to previous GeoffSimmons Fix numbering, limit automatic linking, link NvidiaGraphicsDrivers. view
125 2011-05-16 17:34:23 22389 to previous MuammarElkhatib   view
124 2011-05-16 17:13:15 21845 to previous MuammarElkhatib   view
123 2011-05-16 17:12:03 21844 to previous MuammarElkhatib   view
122 2011-05-15 20:05:32 21589 to previous GeoffSimmons Formatting of Macbook Pro 13 (8,1) details and others, use DefaultTemplate header, spelling. view
121 2011-05-15 19:10:24 21902 to previous MuammarElkhatib   view
120 2011-05-15 19:05:02 21903 to previous MuammarElkhatib   view
119 2011-05-15 18:58:51 21736 to previous MuammarElkhatib   view
118 2011-03-29 15:38:18 19349 to previous ?Christophe Lejeune   view
117 2011-03-27 14:18:45 19372 to previous ?Christophe Lejeune iPhone / iPod mount support view
116 2011-03-10 13:36:11 18880 to previous ?Christophe Lejeune   view
115 2011-03-10 13:34:53 18882 to previous ?Christophe Lejeune Apple IR howto moved to main section view
114 2011-03-10 13:33:28 18884 to previous ?Christophe Lejeune Apple IR howto view
113 2011-03-10 13:31:06 18847 to previous ?Christophe Lejeune Apple IR howto view
112 2011-02-13 10:56:14 18229 to previous ?FlorianPaul better solution for hibernate-ram when lid closes on MacBookPro7,1 view
111 2011-02-12 14:02:39 18496 to previous ?FlorianPaul I described my experiences while installing squeeze on MacBookPro7,1 view
110 2010-11-28 17:55:32 15022 to previous ?Christophe Lejeune typo view
109 2010-11-28 17:54:38 15021 to previous ?Christophe Lejeune typo view
108 2010-11-28 17:49:15 15021 to previous ?Christophe Lejeune typo view
107 2010-11-28 17:46:58 15024 to previous ?Christophe Lejeune typo view
106 2010-11-28 17:44:50 15025 to previous ?Christophe Lejeune Ath5K mention in the Wireless section view
105 2010-11-28 17:31:26 14885 to previous ?Christophe Lejeune Minor refactoring of the Sound section view
104 2010-11-28 17:14:49 14649 to previous ?Christophe Lejeune Wireless / Broadcom view
103 2010-11-28 00:41:40 14546 to previous ?Christophe Lejeune More details about ubuntu packages importation view
102 2010-11-28 00:10:45 14360 to previous ?Christophe Lejeune Brightness adjustment view
101 2010-11-26 06:17:20 14130 to previous NobuhiroIwamatsu   view
100 2010-08-20 16:44:37 14058 to previous ?Christophe Lejeune Kernel version (2.6.26) for sound hack view
99 2010-08-08 09:42:39 14039 to previous ?FlorianPaul   view
98 2010-08-05 07:58:30 13780 to previous ?FlorianPaul   view
97 2010-07-26 17:47:21 13120 to previous ?FlorianPaul   view
96 2010-07-24 20:43:16 12708 to previous NobuhiroIwamatsu   view
95 2010-07-23 14:26:31 12541 to previous ?FlorianPaul   view
94 2010-07-22 21:13:24 12194 to previous NobuhiroIwamatsu   view
93 2010-07-22 21:12:01 12194 to previous NobuhiroIwamatsu   view
92 2010-04-22 14:59:45 11812 to previous ?HelmarGerloni   view
91 2010-04-06 06:01:03 11659 to previous ?NilsBarth cat: mac view
90 2010-03-05 01:07:05 11629 to previous ?AndrewWagner   view
89 2010-02-11 01:24:55 11409 to previous ?AndrewWagner Adding a Status Update section so that new users can see at a glance what the current state of the installer is. view
88 2009-09-27 08:33:53 11090 to previous FranklinPiat Fix DebianBug links view
87 2009-08-21 07:38:17 11142 to previous VasilyValov   view
86 2009-08-20 14:54:27 11112 to previous ?Christophe Lejeune   view
85 2009-08-20 14:45:43 11105 to previous ?Christophe Lejeune   view
84 2009-06-15 19:00:02 10514 to previous FranklinPiat files in modprobe.d should be named *.conf in Lenny+ view
83 2009-03-16 03:30:50 10745 to previous anonymous converted to 1.6 markup view
82 2008-12-06 00:10:48 10725 to previous RaphaelWimmer some links view
81 2008-11-21 19:44:06 10319 to previous noel added some more information about X view
80 2008-11-21 19:27:46 10239 to previous noel AR5418 802.11abgn Wireless PCI Express Adapter works with madwifi in lenny/sid view
79 2008-08-03 22:04:51 10167 to previous ?Stefan Bucur   view
78 2008-07-03 05:59:15 9896 to previous ?RexHoffman   view
77 2008-03-16 04:53:04 9773 to previous ?NickNassar   view
76 2008-03-15 21:49:42 9611 to previous ?NickNassar   view
75 2008-01-31 14:58:06 9110 to previous ?Eugen Dedu Reorganise suspend2ram view
74 2008-01-31 11:04:58 9655 to previous ?Eugen Dedu Sound works with 2.6.24 view
73 2008-01-08 21:45:47 9759 to previous SalokineTerata   view
72 2008-01-01 11:28:28 9770 to previous SalokineTerata   view
71 2007-12-17 00:51:28 9725 to previous ?Braydon Fuller   view
70 2007-12-17 00:50:27 9664 to previous ?Braydon Fuller   view
69 2007-12-17 00:45:16 9537 to previous ?Braydon Fuller   view
68 2007-12-16 09:26:23 9674 to previous ?Braydon Fuller   view
67 2007-12-16 09:20:52 8093 to previous ?Braydon Fuller   view
66 2007-12-05 19:18:58 7882 to previous noel add info about the new working radeonhd x.org driver view
65 2007-11-25 16:47:14 8006 to previous SalokineTerata some layout improvements view
64 2007-11-25 16:45:59 8068 to previous SalokineTerata   view
63 2007-11-25 16:37:16 7469 to previous SalokineTerata minor view
62 2007-11-22 19:52:29 7482 to previous RaphaelWimmer   view
61 2007-11-08 12:30:16 7191 to previous ?SteffenSchulz some corrections/more recent info on MBP3/SR status view
60 2007-10-26 10:04:02 6209 to previous ?Eugen Dedu   view
59 2007-10-24 21:29:02 6074 to previous ?DrinkMilk precision about suspend and resume view
58 2007-10-24 09:47:47 5980 to previous ?Eugen Dedu   view
57 2007-10-23 21:18:28 5823 to previous ?DrinkMilk minor changes view
56 2007-10-15 11:31:59 5700 to previous ?MarcinOwsiany added link to i385 etch kernels built by me view
55 2007-10-10 16:21:58 5453 to previous ?Eugen Dedu X11 free drivers work now, I suppose view
54 2007-10-10 16:19:24 5537 to previous ?Eugen Dedu Ethernet update view
53 2007-10-10 16:06:34 5483 to previous ?Eugen Dedu Move synaptics and mouse buttons to MacBook view
52 2007-10-10 15:18:11 8584 to previous ?Eugen Dedu X11 update view
51 2007-10-10 14:48:03 8348 to previous ?Eugen Dedu No change for new kernel view
50 2007-10-06 23:10:32 8293 to previous MattKraai   view
49 2007-07-27 13:59:13 8226 to previous ?PatrickButler   view
48 2007-07-16 08:03:09 6492 to previous ?Isaac   view
47 2007-06-29 13:05:22 6550 to previous ?MarcinOwsiany it's X Window, not X Windows! view
46 2007-06-27 14:19:29 6551 to previous ?idmnified Just added an "outdated" line to the video config. view
45 2007-03-28 02:16:58 6332 to previous ?PeterAmstutz   view
44 2007-03-28 02:13:21 6507 to previous ?PeterAmstutz   view
43 2007-03-28 01:59:52 6363 to previous ?PeterAmstutz   view
42 2007-03-28 01:59:13 6364 to previous ?PeterAmstutz   view
41 2007-02-08 19:35:35 5599 to previous RaphaelWimmer   view
40 2007-01-20 21:45:50 5587 to previous RaphaelWimmer   view
39 2007-01-05 21:27:41 5143 to previous ?SamuelMathieson   view
38 2007-01-05 21:22:32 5119 to previous ?SamuelMathieson   view
37 2007-01-02 17:50:02 4185 to previous ?SamuelMathieson   view
36 2007-01-02 05:21:56 3992 to previous MattKraai   view
35 2006-12-03 14:47:50 3863 to previous noel C2D sound note. view
34 2006-12-03 13:38:45 3745 to previous noel corrected conflicts view
33 2006-12-03 13:34:29 5069 to previous noel remove double entry and point to macbook entry for media and basic installation. view
32 2006-12-03 13:19:53 4984 to previous MattKraai   view
31 2006-12-03 13:17:41 4983 to previous noel missing refit/gptsync on amd64 view
30 2006-12-03 13:07:01 4715 to previous noel amd64 links for etch installer view
29 2006-11-29 20:58:04 4744 to previous noel   view
28 2006-11-26 16:32:27 4445 to previous MattKraai   view
27 2006-11-19 17:30:53 4713 to previous ?LudovicRousseau cross reference the MacBook page for Wireless, Sound, cpufreq, IR and iSight view
26 2006-11-19 17:14:30 4425 to previous ?LudovicRousseau use {{{ }}} for file names view
25 2006-10-10 04:51:37 4391 to previous MattKraai   view
24 2006-10-01 16:49:37 4556 to previous MattKraai   view
23 2006-09-17 16:49:42 4510 to previous MattKraai   view
22 2006-09-17 16:47:54 4510 to previous MattKraai   view
21 2006-09-05 14:10:11 4511 to previous MattKraai   view
20 2006-08-28 14:01:39 4717 to previous ?OlivierBornet Some tips for synaptics driver view
19 2006-08-28 13:57:24 4533 to previous ?OlivierBornet How to build your own kernel, using the svn and the stock kernel view
18 2006-08-28 10:39:36 3493 to previous MattKraai   view
17 2006-08-28 04:04:45 3582 to previous MattKraai   view
16 2006-08-26 09:21:32 4274 to previous MattKraai   view
15 2006-08-18 14:03:08 3791 to previous MattKraai   view
14 2006-08-18 12:00:12 3363 to previous MattKraai   view
13 2006-08-18 11:46:09 3318 to previous MattKraai   view
12 2006-08-18 05:25:37 3331 to previous MattKraai   view
11 2006-08-18 05:13:12 3260 to previous MattKraai   view
10 2006-08-18 05:11:44 3198 to previous MattKraai   view
9 2006-08-17 10:26:54 3486 to previous MattKraai   view
8 2006-08-17 10:03:58 2954 to previous MattKraai   view
7 2006-08-16 06:13:31 2954 to previous MattKraai   view
6 2006-08-09 07:12:14 1678 to previous MattKraai   view
5 2006-08-09 07:11:31 1723 to previous MattKraai   view
4 2006-08-08 10:55:09 1678 to previous MattKraai   view
3 2006-08-06 18:12:53 1308 to previous MattKraai   view
2 2006-08-06 15:53:27 1119 to previous MattKraai   view
1 2006-08-05 15:30:33 955 MattKraai   view